{"data":{"norad_id":56408,"intl_designator":"2023-061AL","name":"STARLINK-6289","alt_names":[],"object_type":"PAYLOAD","status":"ACTIVE","operator":null,"country":"US","launch_date":"2023-05-04","launch_site_code":"AFETR","launch_vehicle":null,"mission":null,"orbit_class":"UNKNOWN","rcs_meters":null,"size_class":null,"mass_kg":null,"dimensions":null,"purposes":["comms"],"wikipedia_slug":null,"has_3d_model":false,"image_url":null,"decayed_at":null,"tle_current":{"epoch":"2026-05-24T23:09:59.266656Z","epoch_age_seconds":75156,"freshness":"FRESH","line1":"1 56408U 23061AL  26144.96526929  .00000393  00000+0  23796-4 0  9995","line2":"2 56408  43.0043 115.9395 0000919 264.3038  95.7709 15.27586544168545","mean_motion":15.27586544,"eccentricity":9.19e-5,"inclination_deg":43.0043,"raan_deg":115.9395,"arg_perigee_deg":264.3038,"mean_anomaly_deg":95.7709,"bstar":2.3796e-5,"rev_number":16854,"period_min":94.266344886054,"perigee_km":482.39895981797,"apogee_km":483.66004222086,"semimajor_km":6861.1665010194,"source":"CELESTRAK","updated_at":"2026-05-25T13:38:18.059588Z"}}}